[[{"header":{"parameterUnit":"m.s-1","parameterCategory":2,"la1":30.2991,"la2":30.254,"lo1":-89.0895,"lo2":-89.0444,"dy":0.0017,"dx":0.0017,"nx":28,"ny":28,"refTime":"2023-08-24T03:00:00:Z","depth":"0","parameterNumber":2,"parameterNumberName":"U-component_of_CURRENTS"},"data":[0,0,0,0,0,0,0,0,0,0,0,0,0,0,0,0,0,0,0,0,0,0,0,0,0,0,0,0,0,0,0,0,0,0,0,0,0,0,0,0,0,0,0,0,0,0,0,0,0,0,0,0,0,0,0,0,0,0,0.2717,0.2717,0,0.2713,0.2712,0.2712,0.2581,0.2578,0.2575,0.2572,0.2501,0.2502,0.2502,0,0,0,0,0,0,0,0,0,0,0,0,0,0.2697,0.2697,0.2717,0.2717,0.2717,0.2713,0.2712,0.2712,0.2582,0.2578,0.2574,0.2571,0.25,0.2501,0.2502,0,0,0,0,0,0,0,0,0,0,0,0,0,0.2697,0.2697,0.2717,0.2655,0.2649,0.2713,0.2712,0.2712,0.2583,0.2578,0.2573,0.2569,0.25,0.2501,0.2503,0.2602,0,0,0.2507,0.2507,0,0,0,0,0,0,0,0,0.2697,0.2697,0.2664,0.2659,0.2653,0.2646,0.268,0.2673,0.2584,0.2604,0.2572,0.2567,0.2549,0.2546,0.2551,0.2598,0.2595,0.2507,0.2508,0.2508,0.2509,0,0,0,0,0,0,0,0.2697,0.2697,0.2711,0.2664,0.2658,0.2657,0.2651,0.2678,0.2598,0.2602,0.2593,0.2601,0.2545,0.255,0.2548,0.2594,0.2507,0.2508,0.2509,0.2509,0.2658,0.2661,0,0,0,0,0,0,0.2707,0.2697,0.2711,0.2711,0.2669,0.2661,0.2654,0.265,0.2598,0.2588,0.2605,0.2595,0.255,0.2547,0.2545,0.2587,0.2508,0.251,0.251,0.2655,0.2659,0.2662,0,0,0,0,0,0,0.2706,0.2708,0.2711,0.2708,0.2708,0.2666,0.2663,0.2652,0.2648,0.2602,0.2588,0.2609,0.2546,0.2543,0.2557,0.2586,0.251,0.2511,0.2652,0.2656,0.2661,0.2718,0,0,0,0,0,0,0.2705,0.2707,0.272,0.2708,0.2709,0.2746,0.2667,0.2656,0.2662,0.2648,0.2604,0.2592,0.2542,0.2555,0.2558,0.2586,0.2513,0.2648,0.2654,0.2659,0.2713,0.2725,0.2735,0,0,0,0,0,0.2704,0.2729,0.2721,0.2723,0.2724,0.2749,0.275,0.2701,0.2667,0.2678,0.264,0.2592,0.2594,0.256,0.2562,0.2591,0.2645,0.2652,0.2659,0.2708,0.2722,0.2735,0,0,0,0,0,0,0.2725,0.2719,0.2708,0.2729,0.2742,0.2727,0.2741,0.2725,0.2711,0.2692,0.2635,0.2624,0.2655,0.2635,0.2597,0.2657,0.2614,0.2622,0.265,0.2664,0.2675,0.2643,0.2514,0,0,0,0,0,0.2745,0.2759,0.2759,0.2782,0.2788,0.2777,0.2787,0.2762,0.2748,0.2735,0.2709,0.2691,0.2698,0.2683,0.2695,0.2731,0.2713,0.2755,0.2766,0.2775,0.2757,0.2812,0.2825,0.2686,0.2686,0.2685,0,0,0.2763,0.2763,0.2772,0.2789,0.279,0.2797,0.2768,0.2789,0.2785,0.2738,0.2733,0.2745,0.2725,0.275,0.2762,0.2722,0.2802,0.2784,0.2791,0.2767,0.2821,0.2834,0.2846,0.269,0.269,0.2689,0,0,0.2789,0.2805,0.2813,0.2828,0.2843,0.2838,0.285,0.2853,0.2838,0.2866,0.2828,0.2851,0.2862,0.2839,0.2831,0.2925,0.2879,0.2943,0.2945,0.3001,0.3012,0.3021,0.2987,0.2992,0.2925,0.2925,0.2925,0,0.2803,0.281,0.2827,0.2835,0.2838,0.2854,0.2854,0.2868,0.2874,0.2877,0.2866,0.2907,0.2897,0.2909,0.2925,0.2945,0.2942,0.2886,0.3012,0.3021,0.3029,0.2992,0.2998,0.2928,0.2928,0.2928,0.2927,0,0.282,0.2832,0.2846,0.2845,0.286,0.288,0.2887,0.2914,0.2919,0.2924,0.2971,0.298,0.2986,0.3011,0.2983,0.3042,0.3009,0.3036,0.2966,0.3046,0.3002,0.3007,0.2934,0.2932,0.2931,0.293,0,0,0.28,0.2844,0.284,0.2838,0.2863,0.2868,0.2893,0.291,0.2913,0.2966,0.2973,0.3022,0.3041,0.3036,0.3038,0.3073,0.3126,0.307,0.3072,0.3011,0.3189,0.3005,0.2992,0.3185,0.3187,0.3189,0.3122,0,0.2791,0.2803,0.2824,0.2828,0.2829,0.2858,0.2872,0.2898,0.2924,0.295,0.2998,0.3019,0.3046,0.305,0.3104,0.3129,0.3147,0.3136,0.314,0.3138,0.2947,0.2995,0.2856,0.2772,0.3126,0.3127,0.3127,0,0.2767,0.278,0.278,0.2803,0.2803,0.2806,0.2818,0.2837,0.2892,0.2919,0.2973,0.3008,0.3056,0.3083,0.3159,0.3156,0.317,0.3189,0.3189,0.2994,0.2964,0.2759,0.2766,0.2705,0.3134,0.3133,0.3133,0,0.2709,0.2735,0.273,0.2738,0.2773,0.277,0.2781,0.2821,0.2831,0.2889,0.2904,0.2993,0.3009,0.3098,0.3136,0.3159,0.3204,0.3242,0.3079,0.3063,0.2926,0.2894,0.285,0.3297,0.3297,0.3297,0.3297,0,0.2677,0.2672,0.27,0.2698,0.2686,0.2717,0.2706,0.2743,0.278,0.2787,0.2874,0.2887,0.3025,0.3065,0.3126,0.3087,0.32,0.306,0.3045,0.2938,0.2909,0.2833,0.283,0.3294,0.3295,0.3295,0.3296,0,0.2625,0.2648,0.2641,0.2662,0.2659,0.2644,0.2652,0.2651,0.2694,0.2702,0.2718,0.2805,0.2846,0.2935,0.3031,0.3014,0.2923,0.2993,0.2801,0.2762,0.2512,0.2517,0.2294,0.2244,0.2784,0.2779,0.2775,0,0.261,0.26,0.2599,0.2582,0.2587,0.2572,0.2561,0.2601,0.2595,0.2642,0.2635,0.2673,0.269,0.2716,0.2714,0.2722,0.273,0.2554,0.2573,0.2447,0.2446,0.2363,0.2337,0.2413,0.2406,0.2401,0.2397,0,0.2576,0.2567,0.2562,0.2522,0.2495,0.2468,0.245,0.2437,0.2477,0.2479,0.2475,0.2491,0.2483,0.2414,0.2382,0.239,0.2388,0.2433,0.2406,0.2208,0.2018,0.1979,0.2457,0.2348,0.2353,0.2356,0.2359,0.2361,0.2538,0.2515,0.2487,0.2442,0.2416,0.2348,0.2286,0.2275,0.2241,0.22,0.229,0.2239,0.2204,0.213,0.2113,0.1927,0.2002,0.1874,0.1903,0.1838,0.1743,0.2037,0.1851,0.1853,0.1854,0.1856,0.1857,0,0.2451,0.243,0.2403,0.2325,0.2254,0.2261,0.2194,0.2111,0.2023,0.2023,0.1994,0.1888,0.1776,0.1744,0.1556,0.145,0.1431,0.1409,0.1341,0.1361,0.1717,0.1657,0.1294,0.1294,0.1295,0.1295,0.1295,0.1295,0.2396,0.2332,0.2311,0.2171,0.2116,0.1968,0.1902,0.181,0.1772,0.163,0.1534,0.1534,0.148,0.1316,0.116,0.1133,0.1099,0.0944,0.103,0.1368,0.1417,0.1464,0.1409,0.1,0.1,0.0607,0.0604,0.0601]},{"header":{"parameterUnit":"m.s-1","parameterCategory":2,"la1":30.2991,"la2":30.254,"lo1":-89.0895,"lo2":-89.0444,"dy":0.0017,"dx":0.0017,"nx":28,"ny":28,"refTime":"2023-08-24T03:00:00:Z","depth":"0","parameterNumber":3,"parameterNumberName":"V-component_of_CURRENTS"},"data":[0,0,0,0,0,0,0,0,0,0,0,0,0,0,0,0,0,0,0,0,0,0,0,0,0,0,0,0,0,0,0,0,0,0,0,0,0,0,0,0,0,0,0,0,0,0,0,0,0,0,0,0,0,0,0,0,0,0,0.0724,0.0724,0,0.0761,0.0762,0.0762,0.0736,0.0734,0.0733,0.0732,0.075,0.0752,0.0754,0,0,0,0,0,0,0,0,0,0,0,0,0,0.0635,0.0637,0.0724,0.0724,0.0725,0.0761,0.0762,0.0762,0.0736,0.0734,0.0733,0.0731,0.075,0.0752,0.0754,0,0,0,0,0,0,0,0,0,0,0,0,0,0.0674,0.0637,0.0724,0.0715,0.0714,0.0761,0.0762,0.0762,0.0736,0.0734,0.0732,0.073,0.0749,0.0752,0.0754,0.0809,0,0,0.0762,0.0763,0,0,0,0,0,0,0,0,0.0672,0.0678,0.0716,0.0716,0.0715,0.074,0.0737,0.0777,0.0737,0.0729,0.0732,0.0729,0.0746,0.0749,0.0762,0.081,0.0811,0.0762,0.0764,0.0765,0.0766,0,0,0,0,0,0,0,0.0669,0.0676,0.074,0.0716,0.0716,0.071,0.0714,0.0744,0.0749,0.073,0.0728,0.073,0.0745,0.076,0.0762,0.0811,0.0762,0.0764,0.0766,0.0767,0.0874,0.0876,0,0,0,0,0,0,0.0664,0.0674,0.0739,0.0741,0.0687,0.0713,0.0717,0.0735,0.0749,0.0749,0.0732,0.0729,0.0756,0.0759,0.0763,0.0817,0.0765,0.0767,0.0769,0.0873,0.0875,0.0876,0,0,0,0,0,0,0.0663,0.0671,0.0737,0.0706,0.0714,0.0717,0.0737,0.0737,0.0749,0.075,0.075,0.0742,0.0755,0.0759,0.0791,0.0818,0.0768,0.0771,0.0871,0.0873,0.0875,0.0934,0,0,0,0,0,0,0.066,0.067,0.0685,0.0706,0.0715,0.0765,0.0739,0.0739,0.0753,0.0749,0.076,0.0759,0.0754,0.0787,0.0794,0.082,0.0773,0.087,0.0872,0.0875,0.093,0.0937,0.0944,0,0,0,0,0,0.0657,0.0677,0.0686,0.0694,0.0735,0.0766,0.0771,0.0766,0.0755,0.0768,0.0774,0.0759,0.0806,0.0791,0.0798,0.0826,0.0869,0.0872,0.0874,0.0927,0.0936,0.0943,0,0,0,0,0,0,0.0641,0.0677,0.0687,0.0716,0.0742,0.076,0.0769,0.0776,0.0794,0.0787,0.0786,0.0787,0.0825,0.0821,0.0804,0.0863,0.0832,0.0837,0.087,0.0878,0.0885,0.0898,0.0775,0,0,0,0,0,0.0649,0.0677,0.0708,0.0733,0.0744,0.0763,0.0775,0.0779,0.0795,0.08,0.0813,0.0824,0.0847,0.0856,0.0875,0.0917,0.0902,0.0936,0.0942,0.0948,0.0964,0.0981,0.099,0.0886,0.0886,0.0886,0,0,0.0652,0.0673,0.069,0.0732,0.0747,0.0781,0.0765,0.0787,0.082,0.0803,0.0848,0.0855,0.0864,0.0904,0.092,0.0901,0.0963,0.0952,0.0957,0.0969,0.0985,0.0995,0.1004,0.0888,0.0887,0.0887,0,0,0.0672,0.0689,0.0722,0.0743,0.0773,0.079,0.08,0.0832,0.0846,0.0897,0.0889,0.0916,0.0953,0.0966,0.0977,0.1038,0.1002,0.1034,0.1079,0.1095,0.1104,0.1112,0.1072,0.1076,0.1033,0.1033,0.1033,0,0.0674,0.0725,0.0735,0.0767,0.079,0.0798,0.084,0.0864,0.0905,0.0935,0.0914,0.0987,0.0988,0.1045,0.1056,0.1056,0.1035,0.1046,0.1104,0.1112,0.1119,0.1076,0.108,0.1036,0.1036,0.1036,0.1035,0,0.0727,0.0761,0.0776,0.0828,0.0851,0.0885,0.0916,0.095,0.097,0.1003,0.1065,0.1074,0.1116,0.1116,0.1105,0.1159,0.1116,0.1113,0.1083,0.1133,0.1084,0.1087,0.1041,0.104,0.1039,0.1038,0,0,0.0759,0.0809,0.0816,0.0848,0.0889,0.0917,0.0968,0.1036,0.1087,0.1117,0.119,0.1218,0.1222,0.1234,0.1223,0.123,0.1244,0.1191,0.119,0.1149,0.1237,0.1194,0.1191,0.1249,0.1251,0.1252,0.117,0,0.0807,0.0874,0.089,0.0958,0.0997,0.1015,0.1069,0.112,0.1164,0.1235,0.1252,0.1309,0.1267,0.1288,0.1294,0.1276,0.1259,0.1264,0.1197,0.1194,0.115,0.1197,0.1145,0.1069,0.1172,0.1172,0.1173,0,0.0872,0.0904,0.0974,0.1036,0.1055,0.1093,0.1179,0.1229,0.131,0.1346,0.1396,0.1412,0.1445,0.1396,0.1376,0.1378,0.1312,0.1274,0.127,0.1219,0.1159,0.1043,0.1069,0.1026,0.1176,0.1176,0.1175,0,0.0904,0.0973,0.103,0.1048,0.1112,0.1149,0.119,0.1266,0.1319,0.1415,0.1463,0.1505,0.1525,0.1484,0.1412,0.1396,0.1368,0.1336,0.1222,0.1215,0.1154,0.1141,0.1135,0.1307,0.1307,0.1307,0.1307,0,0.096,0.1006,0.1046,0.1072,0.1144,0.1178,0.1262,0.1314,0.1396,0.1468,0.1515,0.1568,0.155,0.1534,0.145,0.1352,0.1395,0.1241,0.1211,0.1168,0.1158,0.1104,0.1101,0.1304,0.1305,0.1305,0.1306,0,0.0986,0.102,0.1076,0.1134,0.1157,0.1202,0.1279,0.1345,0.1417,0.151,0.1541,0.1616,0.1601,0.1551,0.1483,0.1392,0.1271,0.1247,0.1173,0.1138,0.0992,0.0994,0.0968,0.0954,0.1111,0.111,0.1109,0,0.1012,0.1039,0.1094,0.1127,0.115,0.1215,0.1268,0.1345,0.1408,0.1529,0.1576,0.1609,0.1636,0.1532,0.139,0.1243,0.1214,0.1089,0.1062,0.0993,0.0973,0.098,0.0972,0.0976,0.0974,0.0972,0.0971,0,0.1032,0.1042,0.1075,0.1133,0.1184,0.1246,0.1319,0.1366,0.1464,0.1537,0.162,0.1654,0.1573,0.1439,0.1265,0.1158,0.1071,0.1048,0.1016,0.0912,0.0883,0.085,0.0982,0.0956,0.0958,0.0959,0.0959,0.096,0.103,0.1046,0.108,0.1136,0.1197,0.1262,0.13,0.1382,0.1463,0.1556,0.1615,0.1646,0.1495,0.1262,0.1134,0.0879,0.0935,0.0796,0.0809,0.0824,0.0818,0.0899,0.0828,0.0828,0.0829,0.0829,0.083,0,0.1003,0.103,0.1086,0.1144,0.1195,0.1236,0.1325,0.1354,0.1422,0.1521,0.1582,0.1507,0.1309,0.1113,0.0786,0.0659,0.0634,0.0621,0.0624,0.0631,0.072,0.0722,0.0578,0.0578,0.0579,0.0579,0.0579,0.0579,0.0992,0.1014,0.1042,0.1114,0.1162,0.1206,0.1242,0.1296,0.1363,0.1409,0.1414,0.1457,0.1322,0.0886,0.06,0.054,0.0509,0.0475,0.0506,0.0559,0.0577,0.0594,0.0595,0.0428,0.0428,0.0397,0.0396,0.0396]}],[{"header":{"parameterUnit":"m.s-1","parameterCategory":2,"la1":30.2991,"la2":30.254,"lo1":-89.0895,"lo2":-89.0444,"dy":0.0017,"dx":0.0017,"nx":28,"ny":28,"refTime":"2023-08-24T03:00:00:Z","depth":"2","parameterNumber":2,"parameterNumberName":"U-component_of_CURRENTS"},"data":[0,0,0,0,0,0,0,0,0,0,0,0,0,0,0,0,0,0,0,0,0,0,0,0,0,0,0,0,0,0,0,0,0,0,0,0,0,0,0,0,0,0,0,0,0,0,0,0,0,0,0,0,0,0,0,0,0,0,0.224,0.224,0,0.2247,0.2248,0.2248,0.2252,0.2252,0.2252,0.2252,0.2297,0.2298,0.2299,0,0,0,0,0,0,0,0,0,0,0,0,0,0.2193,0.2194,0.224,0.224,0.224,0.2247,0.2248,0.2248,0.2252,0.2252,0.2252,0.2252,0.2296,0.2298,0.2299,0,0,0,0,0,0,0,0,0,0,0,0,0,0.2209,0.2195,0.224,0.2243,0.2243,0.2247,0.2248,0.2248,0.2252,0.2252,0.2252,0.2252,0.2296,0.2298,0.2299,0.2312,0,0,0.2305,0.2306,0,0,0,0,0,0,0,0,0.2208,0.2211,0.2242,0.2243,0.2243,0.2248,0.2247,0.2271,0.2252,0.225,0.2252,0.2252,0.2283,0.2286,0.2288,0.2314,0.2316,0.2305,0.2306,0.2307,0.2308,0,0,0,0,0,0,0,0.2207,0.221,0.2244,0.2242,0.2243,0.2231,0.2233,0.2251,0.2268,0.225,0.225,0.2249,0.2284,0.2286,0.229,0.2317,0.2305,0.2307,0.2308,0.2309,0.2434,0.2436,0,0,0,0,0,0,0.2207,0.221,0.2244,0.2244,0.2224,0.2232,0.2235,0.2247,0.2267,0.227,0.225,0.225,0.2283,0.2287,0.2291,0.2367,0.2307,0.2309,0.231,0.2431,0.2434,0.2436,0,0,0,0,0,0,0.2206,0.2211,0.2243,0.2225,0.2229,0.2233,0.2247,0.2247,0.2294,0.2266,0.227,0.23,0.2283,0.2289,0.2332,0.2366,0.231,0.2311,0.2429,0.2432,0.2435,0.248,0,0,0,0,0,0,0.2205,0.2211,0.2246,0.2226,0.223,0.2285,0.2247,0.2248,0.229,0.2292,0.231,0.2311,0.2284,0.2329,0.2334,0.2368,0.2313,0.2426,0.243,0.2434,0.2476,0.2485,0.2492,0,0,0,0,0,0.2204,0.226,0.2248,0.2254,0.227,0.2287,0.229,0.229,0.2294,0.233,0.2327,0.2313,0.2359,0.2333,0.2337,0.2373,0.2424,0.2429,0.2434,0.2473,0.2483,0.2492,0,0,0,0,0,0,0.228,0.2265,0.2252,0.2307,0.2309,0.2288,0.2327,0.2325,0.2353,0.2362,0.2338,0.234,0.2402,0.2386,0.2358,0.2424,0.2392,0.2398,0.242,0.243,0.2438,0.246,0.2314,0,0,0,0,0,0.2305,0.2334,0.2315,0.2364,0.2367,0.2356,0.2373,0.237,0.2375,0.239,0.2409,0.2417,0.242,0.2424,0.2447,0.2475,0.2451,0.2505,0.2513,0.2519,0.2544,0.2534,0.2542,0.2453,0.2453,0.2453,0,0,0.2334,0.2345,0.2353,0.238,0.238,0.2391,0.2369,0.2408,0.2428,0.2391,0.2465,0.2471,0.2444,0.2476,0.25,0.2465,0.2527,0.2526,0.2531,0.2552,0.254,0.2548,0.2555,0.2456,0.2456,0.2455,0,0,0.2378,0.2429,0.2436,0.2452,0.2465,0.2466,0.249,0.2503,0.2528,0.2574,0.2552,0.2577,0.2605,0.2578,0.256,0.2634,0.2591,0.265,0.2682,0.2672,0.2679,0.2684,0.2633,0.2634,0.2627,0.2628,0.2628,0,0.2403,0.2425,0.2448,0.2464,0.2482,0.2505,0.2514,0.2547,0.2583,0.2598,0.2614,0.2657,0.2647,0.2637,0.2655,0.2652,0.2627,0.2636,0.268,0.2685,0.269,0.2636,0.2636,0.263,0.263,0.263,0.263,0,0.2427,0.2455,0.248,0.2495,0.2533,0.2564,0.2589,0.2648,0.269,0.2699,0.2762,0.2759,0.276,0.277,0.2727,0.2756,0.272,0.2706,0.2646,0.2701,0.2641,0.2641,0.2634,0.2633,0.2633,0.2632,0,0,0.2427,0.2469,0.2482,0.2482,0.2553,0.2576,0.2642,0.2676,0.27,0.2783,0.2807,0.2839,0.2851,0.2835,0.2808,0.2805,0.28,0.2772,0.277,0.2706,0.2751,0.2603,0.2587,0.2791,0.2792,0.2793,0.2681,0,0.2418,0.2433,0.2482,0.252,0.2518,0.2588,0.2639,0.2692,0.2743,0.2793,0.282,0.285,0.2866,0.2857,0.2868,0.2845,0.2808,0.2831,0.2722,0.2719,0.2568,0.2585,0.2411,0.2288,0.268,0.268,0.268,0,0.2393,0.2419,0.2433,0.2487,0.25,0.2554,0.2635,0.2681,0.2751,0.2782,0.2834,0.2862,0.2899,0.2891,0.2891,0.2907,0.2833,0.2806,0.28,0.2654,0.2571,0.2306,0.2272,0.2678,0.2679,0.2679,0.2679,0,0.2334,0.2379,0.2395,0.242,0.2495,0.2541,0.2603,0.268,0.27,0.278,0.28,0.2866,0.2884,0.288,0.2864,0.2866,0.2843,0.2815,0.26,0.2587,0.2415,0.2384,0.2767,0.2767,0.2767,0.2767,0.2768,0,0.2286,0.2298,0.2373,0.2394,0.2422,0.2509,0.2556,0.261,0.2677,0.2691,0.2795,0.2794,0.2889,0.2893,0.2863,0.2748,0.2831,0.2612,0.2557,0.2421,0.2394,0.2728,0.2725,0.2763,0.2764,0.2765,0.2766,0,0.2188,0.2237,0.225,0.2353,0.2383,0.2411,0.2509,0.2535,0.2619,0.264,0.2666,0.2743,0.2723,0.2777,0.2741,0.2703,0.2629,0.2538,0.2362,0.2287,0.2367,0.2368,0.2278,0.2272,0.2267,0.2263,0.2259,0,0.212,0.2117,0.2209,0.2225,0.2279,0.2337,0.2377,0.2479,0.2501,0.2577,0.257,0.2579,0.2513,0.245,0.2396,0.2296,0.2408,0.2076,0.2039,0.2366,0.2321,0.2331,0.2338,0.1815,0.1808,0.1803,0.1798,0,0.2008,0.2058,0.2085,0.2124,0.2175,0.2205,0.2278,0.2266,0.2378,0.2371,0.2336,0.2287,0.2214,0.203,0.1949,0.1883,0.2102,0.1948,0.2348,0.1966,0.1921,0.188,0.1905,0.1748,0.1753,0.1757,0.176,0.1762,0.1919,0.1925,0.1994,0.2004,0.2058,0.2086,0.2078,0.2109,0.2077,0.2018,0.2021,0.1872,0.1851,0.1568,0.1508,0.1517,0.163,0.1594,0.1615,0.1642,0.1609,0.1557,0.1308,0.131,0.1312,0.1314,0.1316,0,0.1849,0.189,0.1882,0.1915,0.1923,0.2017,0.2024,0.196,0.1868,0.175,0.1619,0.1316,0.1154,0.1187,0.1094,0.1076,0.1129,0.1052,0.1126,0.1174,0.1217,0.1169,0.0747,0.0746,0.0744,0.0743,0,0,0.1826,0.1822,0.1819,0.1787,0.183,0.1843,0.1838,0.1698,0.1588,0.1269,0.1116,0.1027,0.11,0.0876,0.0849,0.0799,0.0993,0.0768,0.1218,0.1352,0.1393,0.1512,0.1486,0,0,0,0,0]},{"header":{"parameterUnit":"m.s-1","parameterCategory":2,"la1":30.2991,"la2":30.254,"lo1":-89.0895,"lo2":-89.0444,"dy":0.0017,"dx":0.0017,"nx":28,"ny":28,"refTime":"2023-08-24T03:00:00:Z","depth":"2","parameterNumber":3,"parameterNumberName":"V-component_of_CURRENTS"},"data":[0,0,0,0,0,0,0,0,0,0,0,0,0,0,0,0,0,0,0,0,0,0,0,0,0,0,0,0,0,0,0,0,0,0,0,0,0,0,0,0,0,0,0,0,0,0,0,0,0,0,0,0,0,0,0,0,0,0,-0.0188,-0.0187,0,-0.0159,-0.0159,-0.0158,-0.0044,-0.0041,-0.0039,-0.0036,0.0125,0.0127,0.0129,0,0,0,0,0,0,0,0,0,0,0,0,0,-0.0176,-0.0176,-0.0188,-0.0187,-0.0187,-0.0159,-0.0159,-0.0158,-0.0044,-0.0041,-0.0038,-0.0035,0.0124,0.0127,0.0129,0,0,0,0,0,0,0,0,0,0,0,0,0,-0.0167,-0.0177,-0.0188,-0.0128,-0.0122,-0.0159,-0.0158,-0.0158,-0.0045,-0.0041,-0.0037,-0.0034,0.0124,0.0126,0.0129,0.007,0,0,0.0138,0.0139,0,0,0,0,0,0,0,0,-0.0167,-0.0167,-0.0137,-0.0132,-0.0126,-0.0102,-0.0095,-0.0075,-0.0046,-0.0073,-0.0036,-0.0032,0.0058,0.0066,0.0063,0.0078,0.0085,0.0138,0.014,0.0141,0.0142,0,0,0,0,0,0,0,-0.0168,-0.0168,-0.0175,-0.0137,-0.013,-0.0113,-0.0107,-0.0092,-0.0026,-0.007,-0.0062,-0.0062,0.0063,0.0059,0.0068,0.0087,0.0138,0.0141,0.0142,0.0144,0.0275,0.0276,0,0,0,0,0,0,-0.0176,-0.0169,-0.0176,-0.0174,-0.0139,-0.0116,-0.011,-0.0113,-0.0029,-0.0014,-0.0065,-0.0057,0.0053,0.0064,0.0074,0.0176,0.0141,0.0144,0.0145,0.0273,0.0275,0.0277,0,0,0,0,0,0,-0.0176,-0.0178,-0.0177,-0.0171,-0.017,-0.012,-0.0125,-0.0114,-0.0073,-0.0027,-0.0008,-0.003,0.0056,0.007,0.0173,0.0177,0.0145,0.0148,0.0271,0.0274,0.0276,0.0273,0,0,0,0,0,0,-0.0176,-0.0178,-0.0177,-0.0172,-0.017,-0.0169,-0.0128,-0.0116,-0.0082,-0.0069,0.0008,0.0025,0.006,0.0169,0.0176,0.0181,0.015,0.0269,0.0272,0.0275,0.0271,0.0275,0.0279,0,0,0,0,0,-0.0176,-0.0181,-0.0177,-0.0177,-0.0173,-0.0169,-0.0166,-0.0118,-0.0083,-0.0066,0.0026,0.0025,0.0194,0.0174,0.0181,0.0186,0.0267,0.0271,0.0275,0.0269,0.0275,0.0279,0,0,0,0,0,0,-0.0168,-0.017,-0.0165,-0.0168,-0.016,-0.0148,-0.0136,-0.011,-0.0035,-0.0007,0.0055,0.0078,0.017,0.0181,0.0157,0.0238,0.0225,0.0231,0.0218,0.0223,0.0227,0.0253,0.0152,0,0,0,0,0,-0.0175,-0.0174,-0.0177,-0.0176,-0.0177,-0.0157,-0.0147,-0.012,-0.0064,-0.0028,0.0048,0.0119,0.0176,0.0209,0.0267,0.0299,0.0288,0.0307,0.0311,0.0314,0.0344,0.0312,0.0314,0.029,0.029,0.029,0,0,-0.0174,-0.0173,-0.0173,-0.0174,-0.0167,-0.0156,-0.0139,-0.0122,-0.0086,-0.0025,0.0084,0.0145,0.0196,0.0262,0.0298,0.0279,0.0317,0.0319,0.0321,0.035,0.0316,0.0318,0.0319,0.0293,0.0292,0.0292,0,0,-0.0186,-0.0172,-0.0188,-0.0171,-0.0163,-0.0146,-0.0134,-0.0097,-0.0052,0.0038,0.0097,0.0179,0.0271,0.0307,0.0331,0.0384,0.0351,0.039,0.0414,0.0381,0.0382,0.0382,0.0364,0.0363,0.0375,0.0375,0.0375,0,-0.0178,-0.0194,-0.0188,-0.0187,-0.0146,-0.0134,-0.011,-0.0093,-0.0006,0.006,0.0091,0.0268,0.0292,0.0363,0.0387,0.0389,0.0375,0.0383,0.0382,0.0382,0.0383,0.0364,0.0363,0.0375,0.0375,0.0375,0.0375,0,-0.0197,-0.0198,-0.0198,-0.018,-0.0137,-0.0116,-0.0078,-0.0029,0.0046,0.0111,0.0244,0.0297,0.041,0.04,0.0412,0.0433,0.0423,0.0395,0.0358,0.0384,0.0364,0.0363,0.0376,0.0376,0.0376,0.0376,0,0,-0.02,-0.0212,-0.0205,-0.018,-0.0115,-0.008,-0.0024,0.0057,0.011,0.0221,0.0335,0.0414,0.0475,0.0506,0.0509,0.047,0.0436,0.0434,0.0432,0.0399,0.0376,0.0336,0.0331,0.0396,0.0396,0.0396,0.0355,0,-0.0208,-0.0225,-0.0184,-0.0127,-0.0123,-0.0036,0.0025,0.0116,0.0195,0.0302,0.0381,0.0501,0.0496,0.055,0.0515,0.0487,0.0437,0.0452,0.0375,0.0373,0.0317,0.0329,0.0322,0.0283,0.0354,0.0354,0.0354,0,-0.0237,-0.0235,-0.0199,-0.0112,-0.0086,-0.0001,0.0141,0.0196,0.032,0.0381,0.051,0.0593,0.0654,0.06,0.0564,0.0576,0.0484,0.0425,0.042,0.0391,0.0332,0.0273,0.0278,0.0352,0.0352,0.0352,0.0352,0,-0.0242,-0.0228,-0.0182,-0.0143,-0.0049,0.0054,0.0145,0.0265,0.0336,0.0467,0.0541,0.064,0.0689,0.0639,0.0576,0.0567,0.0483,0.0446,0.0321,0.0318,0.0306,0.0301,0.0363,0.0363,0.0364,0.0364,0.0364,0,-0.0237,-0.0204,-0.0178,-0.0111,-0.0029,0.0076,0.0234,0.0279,0.0414,0.0515,0.0611,0.0651,0.0688,0.0676,0.0598,0.0483,0.0505,0.0346,0.0306,0.0306,0.0302,0.0362,0.0362,0.0362,0.0362,0.0363,0.0363,0,-0.0224,-0.0225,-0.0169,-0.0056,-0.0019,0.0076,0.0293,0.0369,0.0469,0.0587,0.0655,0.0689,0.0661,0.0666,0.0556,0.0491,0.0396,0.0318,0.0334,0.0297,0.0248,0.025,0.0214,0.0213,0.0211,0.021,0.0209,0,-0.0232,-0.0219,-0.0116,-0.0087,0.0,0.0144,0.023,0.0383,0.0481,0.0581,0.0628,0.0648,0.0653,0.0527,0.0422,0.0332,0.0306,0.0226,0.02,0.0269,0.0234,0.0238,0.0241,0.0183,0.0181,0.0181,0.018,0,-0.0227,-0.0175,-0.011,-0.0063,0.0039,0.0142,0.0309,0.037,0.0536,0.0594,0.0606,0.0625,0.0539,0.044,0.0334,0.0253,0.0273,0.0199,0.0264,0.0218,0.0234,0.0202,0.0207,0.0171,0.0172,0.0173,0.0173,0.0174,-0.0224,-0.0186,-0.0107,-0.0053,0.0034,0.0135,0.0234,0.0354,0.0453,0.0572,0.0559,0.0582,0.0502,0.0355,0.0245,0.0147,0.0142,0.0107,0.0112,0.0118,0.0118,0.013,0.0049,0.0049,0.0049,0.0049,0.0049,0,-0.0204,-0.0153,-0.0123,-0.0033,0.0052,0.0147,0.0267,0.0332,0.0403,0.053,0.0582,0.0473,0.0399,0.0327,0.0161,0.0058,0.0076,0.0035,0.0079,0.0086,0.0093,0.0095,0.0019,0.0018,0.0018,0.0018,0,0,-0.0201,-0.0147,-0.0128,-0.0044,0.0055,0.0192,0.0264,0.0276,0.0364,0.0431,0.0514,0.0591,0.047,0.0335,0.0195,0.0117,0.0137,0.0105,0.0135,0.021,0.0219,0.0132,0.0142,0,0,0,0,0]}],[{"header":{"parameterUnit":"m.s-1","parameterCategory":2,"la1":30.2991,"la2":30.254,"lo1":-89.0895,"lo2":-89.0444,"dy":0.0017,"dx":0.0017,"nx":28,"ny":28,"refTime":"2023-08-24T03:00:00:Z","depth":"4","parameterNumber":2,"parameterNumberName":"U-component_of_CURRENTS"},"data":[0,0,0,0,0,0,0,0,0,0,0,0,0,0,0,0,0,0,0,0,0,0,0,0,0,0,0,0,0,0,0,0,0,0,0,0,0,0,0,0,0,0,0,0,0,0,0,0,0,0,0,0,0,0,0,0,0,0,0.0482,0.0482,0,0.0496,0.0496,0.0496,0.0504,0.0504,0.0504,0.0504,0.049,0.0489,0.0489,0,0,0,0,0,0,0,0,0,0,0,0,0,0.0509,0.0508,0.0482,0.0482,0.0483,0.0496,0.0496,0.0496,0.0504,0.0504,0.0504,0.0504,0.049,0.0489,0.0489,0,0,0,0,0,0,0,0,0,0,0,0,0,0.0508,0.0508,0.0482,0.0488,0.0489,0.0496,0.0496,0.0496,0.0504,0.0504,0.0504,0.0504,0.049,0.0489,0.0489,0.0485,0,0,0.0487,0.0487,0,0,0,0,0,0,0,0,0.0508,0.0507,0.0487,0.0488,0.0488,0.0498,0.05,0.0491,0.0504,0.0499,0.0504,0.0504,0.049,0.0489,0.0492,0.0484,0.0483,0.0487,0.0487,0.0486,0.0486,0,0,0,0,0,0,0,0.0508,0.0507,0.0488,0.0487,0.0488,0.0505,0.0505,0.0499,0.0494,0.0499,0.05,0.0501,0.049,0.0493,0.0492,0.0483,0.0487,0.0486,0.0486,0.0486,0.0597,0.0601,0,0,0,0,0,0,0.0503,0.0506,0.0488,0.0488,0.0498,0.0505,0.0504,0.0495,0.0494,0.0494,0.0501,0.0501,0.0494,0.0493,0.0492,0.0544,0.0486,0.0486,0.0485,0.0594,0.0598,0.0602,0,0,0,0,0,0,0.0503,0.0501,0.0487,0.0498,0.0498,0.0504,0.0494,0.0495,0.0521,0.0496,0.0495,0.0527,0.0494,0.0492,0.0532,0.0541,0.0485,0.0485,0.059,0.0595,0.06,0.0612,0,0,0,0,0,0,0.0504,0.05,0.0504,0.0497,0.0497,0.0491,0.0494,0.0496,0.052,0.0521,0.0518,0.0515,0.0494,0.0533,0.0531,0.0539,0.0484,0.0586,0.0592,0.0598,0.0607,0.0617,0.0625,0,0,0,0,0,0.0505,0.0493,0.0503,0.0502,0.0496,0.049,0.0492,0.0497,0.0522,0.0524,0.0557,0.0517,0.0572,0.0535,0.0532,0.054,0.0583,0.0591,0.0598,0.0604,0.0615,0.0625,0,0,0,0,0,0,0.0499,0.0493,0.0504,0.0491,0.0496,0.0492,0.0495,0.0516,0.0544,0.0557,0.055,0.055,0.057,0.0584,0.0545,0.0603,0.0574,0.0581,0.058,0.059,0.0599,0.0566,0.0484,0,0,0,0,0,0.0502,0.049,0.0497,0.0483,0.0492,0.0507,0.0514,0.0522,0.054,0.0554,0.0554,0.0581,0.0597,0.0619,0.0611,0.0656,0.0649,0.067,0.0679,0.0685,0.0665,0.07,0.0707,0.0626,0.0626,0.0626,0,0,0.0493,0.0489,0.0482,0.0482,0.0489,0.0498,0.0511,0.0521,0.0532,0.0547,0.0568,0.0585,0.0611,0.064,0.0656,0.0659,0.071,0.0695,0.07,0.0675,0.0708,0.0715,0.0721,0.0631,0.063,0.063,0,0,0.0463,0.0472,0.046,0.047,0.0485,0.0498,0.0511,0.0527,0.054,0.0573,0.0589,0.0638,0.0654,0.0684,0.0703,0.0772,0.0731,0.0778,0.0813,0.0848,0.0853,0.0858,0.0861,0.0865,0.0812,0.0812,0.0812,0,0.0461,0.0449,0.0456,0.0455,0.0468,0.0505,0.0513,0.0529,0.0555,0.0577,0.0579,0.065,0.0671,0.0733,0.0763,0.0781,0.0784,0.0759,0.0853,0.0857,0.0861,0.0863,0.0868,0.0813,0.0813,0.0813,0.0813,0,0.0427,0.0433,0.0428,0.0443,0.0453,0.0467,0.0494,0.0521,0.0556,0.0574,0.0622,0.0668,0.0722,0.0747,0.0773,0.0833,0.0817,0.0828,0.0807,0.0869,0.0869,0.0873,0.0815,0.0815,0.0814,0.0814,0,0,0.0393,0.0407,0.0411,0.0427,0.0459,0.0465,0.0494,0.0533,0.057,0.0599,0.0641,0.0702,0.0739,0.0768,0.0816,0.0864,0.0909,0.0869,0.087,0.0837,0.096,0.0884,0.0882,0.0932,0.0933,0.0934,0.0947,0,0.0381,0.038,0.0391,0.0411,0.0424,0.047,0.0494,0.0533,0.0571,0.0615,0.0678,0.0725,0.0746,0.0796,0.0842,0.088,0.0921,0.0902,0.0935,0.0935,0.0832,0.0885,0.0937,0.095,0.0951,0.0952,0.0952,0,0.0359,0.0363,0.0375,0.0416,0.0429,0.0455,0.0522,0.0543,0.061,0.0644,0.0704,0.0736,0.0818,0.0829,0.0905,0.0889,0.0924,0.0948,0.095,0.0868,0.0867,0.0882,0.096,0.0959,0.0959,0.0958,0.0958,0,0.0337,0.0362,0.0376,0.0388,0.0432,0.0466,0.0506,0.0563,0.0591,0.0671,0.071,0.0776,0.0834,0.0872,0.0923,0.0923,0.0978,0.0993,0.0949,0.0943,0.0996,0.0991,0.1039,0.1039,0.1039,0.1039,0.1039,0,0.0326,0.0339,0.0379,0.0387,0.0426,0.0461,0.0512,0.0564,0.063,0.0663,0.0734,0.0775,0.0849,0.0887,0.0919,0.0932,0.0982,0.0939,0.0944,0.1005,0.1002,0.0998,0.0993,0.104,0.104,0.104,0.1039,0,0.0296,0.0321,0.0333,0.0387,0.0413,0.044,0.0516,0.0548,0.0626,0.0674,0.0704,0.0786,0.0832,0.0877,0.0941,0.093,0.0952,0.095,0.0988,0.0996,0.089,0.0887,0.0892,0.089,0.0887,0.0886,0.0884,0,0.0278,0.028,0.0322,0.0339,0.0372,0.0423,0.0459,0.054,0.0567,0.0667,0.0685,0.0758,0.0802,0.0823,0.0876,0.0905,0.0913,0.0908,0.0913,0.0872,0.0877,0.0877,0.0876,0.0881,0.088,0.088,0.0879,0,0.0234,0.0251,0.0262,0.0295,0.0337,0.0373,0.0435,0.0453,0.0535,0.0606,0.0656,0.0696,0.0741,0.0777,0.0805,0.0832,0.0897,0.0886,0.0891,0.0895,0.0858,0.0865,0.0867,0.0872,0.0873,0.0874,0.0874,0,0.0198,0.0195,0.0213,0.0248,0.0286,0.0321,0.036,0.0408,0.0451,0.0562,0.0567,0.0657,0.0718,0.074,0.0764,0.0776,0.0779,0.0764,0.0776,0.0785,0.0745,0.0682,0.0639,0,0,0,0,0,0.0166,0.0162,0.0172,0.0197,0.0234,0.0269,0.0338,0.0377,0.0452,0.0467,0.0521,0.0562,0.0615,0.0659,0.0654,0.0716,0.0775,0.0707,0.0762,0.0831,0.0839,0.0804,0,0,0,0,0,0,0.0138,0.0142,0.0147,0.0153,0.0169,0.0208,0.0256,0.0312,0.0329,0.041,0.0444,0.0511,0.057,0.0602,0.0635,0.0648,0.0669,0.0758,0.0756,0.0826,0.0834,0.0841,0.0807,0,0,0,0,0]},{"header":{"parameterUnit":"m.s-1","parameterCategory":2,"la1":30.2991,"la2":30.254,"lo1":-89.0895,"lo2":-89.0444,"dy":0.0017,"dx":0.0017,"nx":28,"ny":28,"refTime":"2023-08-24T03:00:00:Z","depth":"4","parameterNumber":3,"parameterNumberName":"V-component_of_CURRENTS"},"data":[0,0,0,0,0,0,0,0,0,0,0,0,0,0,0,0,0,0,0,0,0,0,0,0,0,0,0,0,0,0,0,0,0,0,0,0,0,0,0,0,0,0,0,0,0,0,0,0,0,0,0,0,0,0,0,0,0,0,-0.0202,-0.0203,0,-0.026,-0.026,-0.0261,-0.0273,-0.0272,-0.0272,-0.0272,-0.0311,-0.0313,-0.0314,0,0,0,0,0,0,0,0,0,0,0,0,0,-0.0166,-0.0166,-0.0202,-0.0203,-0.0204,-0.026,-0.026,-0.0261,-0.0273,-0.0272,-0.0272,-0.0271,-0.0311,-0.0312,-0.0314,0,0,0,0,0,0,0,0,0,0,0,0,0,-0.0197,-0.0166,-0.0202,-0.0217,-0.0219,-0.026,-0.0261,-0.0261,-0.0273,-0.0272,-0.0272,-0.0271,-0.031,-0.0312,-0.0314,-0.0337,0,0,-0.032,-0.0321,0,0,0,0,0,0,0,0,-0.0196,-0.0199,-0.0214,-0.0216,-0.0218,-0.026,-0.0263,-0.0286,-0.0273,-0.0251,-0.0272,-0.0271,-0.0293,-0.0297,-0.0307,-0.0339,-0.0341,-0.0321,-0.0322,-0.0323,-0.0323,0,0,0,0,0,0,0,-0.0193,-0.0197,-0.0224,-0.0215,-0.0218,-0.0243,-0.0246,-0.0267,-0.0273,-0.0253,-0.0254,-0.0263,-0.0294,-0.0305,-0.0308,-0.0341,-0.0321,-0.0322,-0.0324,-0.0325,-0.0411,-0.0412,0,0,0,0,0,0,-0.0186,-0.0194,-0.0222,-0.0226,-0.0207,-0.0244,-0.0248,-0.0246,-0.0273,-0.0278,-0.0263,-0.0263,-0.0302,-0.0306,-0.031,-0.0326,-0.0323,-0.0325,-0.0326,-0.041,-0.0412,-0.0413,0,0,0,0,0,0,-0.0185,-0.0187,-0.022,-0.0213,-0.0219,-0.0245,-0.0243,-0.0247,-0.0265,-0.0281,-0.0285,-0.0277,-0.0302,-0.0307,-0.0344,-0.0328,-0.0326,-0.0328,-0.0409,-0.0411,-0.0412,-0.0367,0,0,0,0,0,0,-0.0183,-0.0186,-0.0187,-0.0212,-0.0219,-0.0228,-0.0244,-0.0249,-0.0271,-0.0271,-0.0294,-0.0297,-0.0302,-0.0341,-0.0346,-0.0331,-0.0329,-0.0408,-0.041,-0.0412,-0.0368,-0.0367,-0.0367,0,0,0,0,0,-0.0182,-0.0172,-0.0186,-0.019,-0.0217,-0.0228,-0.0233,-0.025,-0.0272,-0.0267,-0.0306,-0.0297,-0.0356,-0.0344,-0.0349,-0.0335,-0.0407,-0.0409,-0.0412,-0.0368,-0.0367,-0.0367,0,0,0,0,0,0,-0.0158,-0.0173,-0.0189,-0.0186,-0.0203,-0.0229,-0.0232,-0.0257,-0.0286,-0.029,-0.0318,-0.0323,-0.0346,-0.0362,-0.0347,-0.0371,-0.0378,-0.0381,-0.0342,-0.0342,-0.0342,-0.0318,-0.0331,0,0,0,0,0,-0.0155,-0.0149,-0.0174,-0.0173,-0.018,-0.0214,-0.0226,-0.0237,-0.0265,-0.0277,-0.0303,-0.0335,-0.0361,-0.0369,-0.0391,-0.0409,-0.0413,-0.0405,-0.0405,-0.0404,-0.0392,-0.0418,-0.0418,-0.0421,-0.0421,-0.0421,0,0,-0.0145,-0.0156,-0.0152,-0.0168,-0.0185,-0.0183,-0.0218,-0.0225,-0.0226,-0.0278,-0.0294,-0.0336,-0.037,-0.0386,-0.0396,-0.0394,-0.0402,-0.0407,-0.0406,-0.0394,-0.042,-0.0419,-0.0419,-0.0422,-0.0422,-0.0422,0,0,-0.012,-0.0132,-0.0121,-0.0129,-0.0149,-0.0163,-0.0167,-0.0198,-0.021,-0.0239,-0.028,-0.0321,-0.0357,-0.0377,-0.0393,-0.0412,-0.0405,-0.042,-0.0388,-0.0414,-0.0413,-0.0412,-0.0391,-0.0389,-0.0413,-0.0413,-0.0413,0,-0.0115,-0.0105,-0.012,-0.0113,-0.0119,-0.0153,-0.0145,-0.0157,-0.0199,-0.0217,-0.0231,-0.0319,-0.0346,-0.0377,-0.0381,-0.0405,-0.0409,-0.0379,-0.041,-0.0409,-0.0409,-0.0388,-0.0386,-0.0411,-0.0411,-0.0412,-0.0412,0,-0.0082,-0.0078,-0.0071,-0.0071,-0.0072,-0.007,-0.0086,-0.0098,-0.0129,-0.0156,-0.0203,-0.0258,-0.0307,-0.0325,-0.0354,-0.0375,-0.0373,-0.0408,-0.04,-0.0406,-0.0384,-0.0382,-0.0408,-0.0409,-0.041,-0.041,0,0,-0.0068,-0.0053,-0.0051,-0.0051,-0.0053,-0.0053,-0.0044,-0.006,-0.0071,-0.0112,-0.0136,-0.0196,-0.0241,-0.0265,-0.0316,-0.0339,-0.0337,-0.0368,-0.037,-0.0326,-0.036,-0.0347,-0.0344,-0.0382,-0.0382,-0.0382,-0.0334,0,-0.005,-0.0025,-0.0019,-0.0,0.0004,-0.0008,-0.0002,-0.0016,-0.0041,-0.0067,-0.0125,-0.0165,-0.0211,-0.0244,-0.0273,-0.0335,-0.0336,-0.0344,-0.0379,-0.0378,-0.0351,-0.0344,-0.0383,-0.0333,-0.0333,-0.0333,-0.0333,0,-0.0031,-0.0017,0.0008,0.0018,0.0019,0.003,0.0024,0.0028,-0.0001,-0.0024,-0.0068,-0.0115,-0.0159,-0.0201,-0.0266,-0.0271,-0.0301,-0.0338,-0.0339,-0.034,-0.0365,-0.0337,-0.033,-0.033,-0.0331,-0.0331,-0.0331,0,-0.0031,-0.0005,0.0013,0.0019,0.0034,0.0039,0.0045,0.0031,0.0033,0.0002,-0.001,-0.0071,-0.0102,-0.0159,-0.023,-0.0249,-0.0292,-0.0326,-0.033,-0.0327,-0.037,-0.0372,-0.0351,-0.0351,-0.0352,-0.0352,-0.0352,0,-0.0025,-0.0014,0.0014,0.0022,0.0041,0.0048,0.006,0.0055,0.0051,0.0053,0.0008,-0.0009,-0.0099,-0.0138,-0.02,-0.0252,-0.0262,-0.0308,-0.032,-0.0351,-0.0351,-0.0367,-0.037,-0.035,-0.035,-0.0351,-0.0351,0,-0.0032,-0.0017,0.0006,0.0033,0.004,0.0056,0.0083,0.009,0.0084,0.0091,0.0086,0.0044,-0.0006,-0.0079,-0.0162,-0.0206,-0.0263,-0.0276,-0.0261,-0.0275,-0.0278,-0.0279,-0.0258,-0.0258,-0.0257,-0.0256,-0.0256,0,-0.0033,-0.0023,0.0018,0.0037,0.0049,0.0074,0.009,0.0101,0.0115,0.0118,0.0122,0.0089,0.005,-0.0032,-0.0122,-0.0201,-0.0231,-0.0234,-0.029,-0.0258,-0.0271,-0.0274,-0.0275,-0.0255,-0.0255,-0.0255,-0.0255,0,-0.0032,-0.0017,0.001,0.0049,0.0073,0.0105,0.013,0.0144,0.016,0.0158,0.0158,0.0115,0.0068,-0.0016,-0.0073,-0.0145,-0.0224,-0.0228,-0.0231,-0.0284,-0.0254,-0.0268,-0.0271,-0.0252,-0.0253,-0.0253,-0.0253,0,-0.0026,-0.0008,0.0028,0.0065,0.0094,0.0126,0.014,0.0164,0.0181,0.0187,0.0188,0.0132,0.0101,0.0015,-0.0047,-0.0106,-0.0132,-0.0158,-0.0165,-0.0168,-0.0176,-0.0127,-0.0083,0,0,0,0,0,-0.0015,0.0005,0.0039,0.0079,0.011,0.013,0.0163,0.0177,0.0192,0.02,0.0199,0.0156,0.0075,0.0034,-0.0021,-0.0052,-0.0152,-0.0119,-0.0187,-0.0241,-0.0243,-0.027,0,0,0,0,0,0,-0.0007,0.0023,0.0041,0.0085,0.011,0.0146,0.0168,0.0182,0.0188,0.0194,0.0151,0.0141,0.0056,0.0104,-0.0024,-0.0042,-0.0091,-0.0157,-0.0158,-0.0239,-0.0242,-0.0244,-0.0272,0,0,0,0,0]}]]